Regional Weather Roundup
Issued by NWS

Home | Current Version | Previous Version | Graphics & Text | Print | Product List | Glossary On
Versions: 1 2 3 4 5 6 7 8 9 10 11 12 13 14 15 16 17 18 19 20 21 22 23 24 25 26 27
000
ASUS45 KSLC 200210
RWRUT

UTAH REGIONAL WEATHER ROUNDUP
NATIONAL WEATHER SERVICE SALT LAKE CITY UT
800 PM MDT SAT APR 19 2014

UTZ001>011-023>025-200300-

NORTHERN UTAH

CITY           SKY/WX    TMP DP  RH WIND       PRES   REMARKS
HILL AFB       PTCLDY    62  29  28 SW5       29.99S
LOGAN          CLEAR     62  34  35 S6        29.97R
OGDEN          CLEAR     64  29  26 SW3       29.97S
PROVO AIRPORT  MOCLDY    63  43  48 NW5       29.99R
SALT LAKE CITY MOCLDY    67  36  31 NW3       29.96S
VERNAL         PTCLDY    57  41  55 N8        30.03R
WENDOVER       CLOUDY    70  37  30 S16G28    29.95R
HEBER CITY     MOCLDY    55  36  47 SE5       30.02R
WEST JORDAN    CLEAR     63  43  48 N3        29.98S

$$

UTZ012>022-026-027-200300-

SOUTHERN UTAH

CITY           SKY/WX    TMP DP  RH WIND       PRES   REMARKS
BRYCE CANYON   MOCLDY    50  34  54 NE10      30.17R
CEDAR CITY     CLOUDY    63  31  30 SW12      30.04R
MILFORD        MOCLDY    69  28  21 S7        29.98R
MOAB/CYNLANDS  CLEAR     62  39  42 N13       30.02R
PRICE          MOCLDY    58  33  39 S6        30.07R
ST GEORGE      MOCLDY    77  36  22 S7        29.94S
KANAB            N/A     64  32  29 NW3       30.08R

$$

REGIONAL REPORTS     COLORADO/ARIZONA

CITY           SKY/WX    TMP DP  RH WIND       PRES   REMARKS
CRAIG, CO      CLEAR     49  38  65 SE7       30.06S
GRAND JUNCTION MOCLDY    60  45  57 SW5       30.04R
RIFLE          CLOUDY    60  38  43 W8        30.05R
MONTROSE       MOCLDY    56  47  71 E7        30.09R
CORTEZ         CLEAR     59  31  34 W6        30.07R
PAGE, AZ       PTCLDY    68  36  30 W6        30.01R
GRAND CANYON   PTCLDY    52  40  63 E3        30.15S
KINGMAN        MOCLDY    72  36  26 W8        29.99R
FLAGSTAFF      MOCLDY    49  33  54 CALM      30.16R

$$

REGIONAL REPORTS    NEVADA/IDAHO/WYOMING

CITY           SKY/WX    TMP DP  RH WIND       PRES   REMARKS
LAS VEGAS, NV  PTCLDY    83  31  15 S7        29.85S
ELY            PTCLDY    58  35  42 S9        30.07F
ELKO           CLEAR     66  26  22 W6        29.96S
POCATELLO, ID  CLEAR     65  24  21 CALM      29.94S
BURLEY         CLEAR     63  31  30 E5        29.89S
EVANSTON, WY   MOCLDY    51  28  41 SW8       30.08S
ROCK SPRINGS   MOCLDY    55  31  39 W9        30.05S

$$



USA.gov is the U.S. government's official web portal to all federal, state and local government web resources and services.